Muskegon, MI

5:24 AM EDT on June 27, 2017 (GMT -0400)
Muskegon County

Weather History for KMKG - May, 2013

Change the Weather History Date:

Tuesday, May 21, 2013

  Actual Average Record
Temperature  
Mean Temperature 68 °F 58 °F  
Max Temperature 76 °F 68 °F 88 °F (1977)
Min Temperature 59 °F 48 °F 27 °F (2002)
Degree Days  
Heating Degree Days 0 8  
Month to date heating degree days 109 215  
Since 1 July heating degree days 6199 6433  
Cooling Degree Days 3 1  
Month to date cooling degree days 34 13  
Year to date cooling degree days 38 17  
Growing Degree Days 17 (Base 50)    
Moisture  
Dew Point 60 °F    
Average Humidity 76    
Maximum Humidity 87    
Minimum Humidity 64    
Precipitation  
Precipitation 0.34 in 0.11 in 2.30 in (2004)
Month to date precipitation 1.43 2.21  
Year to date precipitation 19.55 11.23  
Snow  
Snow 0.00 in 0.00 in T in (1963)
Month to date snowfall 0.0 0.0  
Since 1 July snowfall 98.6 93.7  
Snow Depth 0.00 in    
Sea Level Pressure  
Sea Level Pressure 29.73 in    
Wind  
Wind Speed 13 mph (SSW)    
Max Wind Speed 36 mph    
Max Gust Speed 51 mph    
Visibility 9 miles    
Events Rain , Thunderstorm    
T = Trace of Precipitation, MM = Missing Value Source: NWS Daily Summary

Daily Weather History Graph

Daily Weather History Graph

Search for Another Location

Airport or City:

Trip Planner

Search our weather history database for the weather conditions in past years. The results will help you decide how hot, cold, wet, or windy it might be!

Date:

Astronomy

May. 21, 2013 Rise Set
Actual Time 6:15 AM EDT 9:08 PM EDT
Civil Twilight 5:41 AM EDT 9:42 PM EDT
Nautical Twilight 4:59 AM EDT 10:24 PM EDT
Astronomical Twilight 4:09 AM EDT 11:14 PM EDT
Moon 5:16 PM EDT (5/21) 3:49 AM EDT (5/21)
Length of Visible Light 16h 00m
Length of Day
14h 53m
Waxing Gibbous, 84% of the Moon is Illuminated
May 21
Waxing Gibbous
May 25
Full
May 31
Last Quarter
Jun 8
New
Jun 16
First Quarter

Hourly Weather History & Observations

Time (EDT) Temp. Dew Point Humidity Pressure Visibility Wind Dir Wind Speed Gust Speed Precip Events Conditions
12:52 AM 69.8 °F 60.8 °F 73% 29.76 in 10.0 mi SSW 10.4 mph - 0.00 in Thunderstorm Mostly Cloudy
12:55 AM 70.0 °F 60.1 °F 71% 29.75 in 10.0 mi SSW 8.1 mph - 0.00 in Thunderstorm Mostly Cloudy
1:24 AM 69.8 °F 60.8 °F 73% 29.74 in 10.0 mi Calm Calm - 0.00 in   Mostly Cloudy
1:55 AM 69.1 °F 62.1 °F 78% 29.72 in 10.0 mi SE 6.9 mph - 0.01 in   Mostly Cloudy
2:29 AM 62.6 °F 57.2 °F 82% 29.75 in 10.0 mi WSW 12.7 mph 24.2 mph 0.00 in Rain , Thunderstorm Light Rain
2:51 AM 62.6 °F 59.0 °F 88% 29.78 in 2.5 mi SW 17.3 mph 24.2 mph 0.08 in Rain , Thunderstorm Heavy Thunderstorms and Rain
2:55 AM 61.0 °F 57.9 °F 90% 29.78 in 3.0 mi SW 18.4 mph 24.2 mph 0.10 in Rain , Thunderstorm Thunderstorms and Rain
3:12 AM 60.8 °F 57.2 °F 88% 29.79 in 5.0 mi SW 16.1 mph - 0.04 in Rain , Thunderstorm Thunderstorms and Rain
3:15 AM 59.0 °F 57.2 °F 94% 29.79 in 5.0 mi SW 15.0 mph - 0.05 in Rain , Thunderstorm Thunderstorms and Rain
3:26 AM 59.0 °F 57.2 °F 94% 29.76 in 4.0 mi WSW 6.9 mph - 0.07 in Rain , Thunderstorm Rain
3:41 AM 60.8 °F 57.2 °F 88% 29.72 in 5.0 mi WNW 4.6 mph - 0.11 in Rain Light Rain
3:55 AM 60.1 °F 57.9 °F 93% 29.71 in 7.0 mi Calm Calm - 0.11 in   Scattered Clouds
4:55 AM 62.1 °F 59.0 °F 90% 29.72 in 6.0 mi SE 12.7 mph - 0.03 in Rain Rain
5:55 AM 63.0 °F 60.1 °F 90% 29.72 in 10.0 mi South 5.8 mph - 0.09 in   Overcast
6:46 AM 62.6 °F 60.8 °F 94% 29.74 in 10.0 mi SE 9.2 mph - N/A   Mostly Cloudy
6:55 AM 64.0 °F 61.0 °F 90% 29.73 in 10.0 mi SSE 8.1 mph - N/A   Mostly Cloudy
7:55 AM 66.9 °F 62.1 °F 84% 29.71 in 10.0 mi South 11.5 mph 16.1 mph N/A   Scattered Clouds
8:55 AM 69.1 °F 61.0 °F 75% 29.72 in 10.0 mi South 17.3 mph 25.3 mph N/A   Partly Cloudy
9:55 AM 68.0 °F 60.1 °F 76% 29.74 in 10.0 mi South 20.7 mph 26.5 mph N/A   Partly Cloudy
10:55 AM 68.0 °F 59.0 °F 73% 29.74 in 10.0 mi South 16.1 mph 24.2 mph N/A   Scattered Clouds
11:55 AM 72.0 °F 61.0 °F 68% 29.74 in 10.0 mi SSW 20.7 mph 28.8 mph N/A   Partly Cloudy
12:55 PM 73.0 °F 61.0 °F 66% 29.73 in 10.0 mi South 20.7 mph 29.9 mph N/A   Scattered Clouds
1:48 PM 73.4 °F 60.8 °F 65% 29.74 in 10.0 mi South 17.3 mph 28.8 mph N/A   Mostly Cloudy
1:55 PM 73.9 °F 61.0 °F 64% 29.73 in 10.0 mi SSW 17.3 mph 28.8 mph N/A   Mostly Cloudy
2:16 PM 73.4 °F 60.8 °F 65% 29.73 in 10.0 mi SSW 20.7 mph 31.1 mph N/A   Scattered Clouds
2:55 PM 73.9 °F 61.0 °F 64% 29.72 in 10.0 mi SSW 23.0 mph 29.9 mph N/A   Partly Cloudy
3:55 PM 75.9 °F 62.1 °F 62% 29.72 in 10.0 mi South 19.6 mph 29.9 mph N/A   Partly Cloudy
4:55 PM 75.9 °F 62.1 °F 62% 29.70 in 10.0 mi SSW 17.3 mph 26.5 mph N/A   Partly Cloudy
5:55 PM 75.9 °F 63.0 °F 64% 29.69 in 10.0 mi South 16.1 mph 25.3 mph N/A   Partly Cloudy
6:55 PM 75.9 °F 62.1 °F 62% 29.69 in 10.0 mi SSW 15.0 mph 24.2 mph N/A   Partly Cloudy
7:55 PM 73.9 °F 61.0 °F 64% 29.68 in 10.0 mi South 13.8 mph - N/A   Partly Cloudy
8:55 PM 73.0 °F 61.0 °F 66% 29.69 in 10.0 mi SSW 11.5 mph 20.7 mph N/A   Scattered Clouds
9:55 PM 70.0 °F 59.0 °F 68% 29.70 in 10.0 mi SW 10.4 mph - N/A   Partly Cloudy
10:55 PM 64.9 °F 57.0 °F 75% 29.71 in 10.0 mi SW 8.1 mph - N/A   Partly Cloudy
11:55 PM 63.0 °F 55.9 °F 78% 29.71 in 10.0 mi SSW 3.5 mph - N/A   Clear